[[{"header":{"parameterUnit":"m.s-1","parameterCategory":1,"la1":30.2991,"la2":30.254,"lo1":-89.0895,"lo2":-89.0444,"dy":0.0017,"dx":0.0017,"nx":28,"ny":28,"refTime":"2025-08-23T03:00:00:Z","depth":0,"parameterNumber":2,"parameterNumberName":"U-component_of_WINDS"},"data":[0,0,0,0,0,0,0,0,0,0,0,0,0,0,0,0,0,0,0,0,0,0,0,0,0,0,0,0,0,0,0,0,0,0,0,0,0,0,0,0,0,0,0,0,0,0,0,0,0,0,0,0,0,0,0,0,0,0,2.3303,2.3303,0,2.3354,2.3355,2.3355,2.3299,2.3297,2.3295,2.3293,2.335,2.3353,2.3357,0,0,0,0,0,0,0,0,0,0,0,0,0,2.3161,2.3164,2.3303,2.3303,2.3304,2.3354,2.3355,2.3355,2.3299,2.3297,2.3294,2.3292,2.3349,2.3353,2.3357,0,0,0,0,0,0,0,0,0,0,0,0,0,2.3219,2.3165,2.3303,2.3282,2.3281,2.3354,2.3355,2.3355,2.33,2.3297,2.3294,2.3291,2.3347,2.3352,2.3357,2.3455,0,0,2.3374,2.3376,0,0,0,0,0,0,0,0,2.3216,2.3224,2.3284,2.3284,2.3282,2.3317,2.3325,2.3389,2.3301,2.3293,2.3293,2.3289,2.3342,2.3347,2.3364,2.3457,2.346,2.3374,2.3377,2.338,2.3381,0,0,0,0,0,0,0,2.3212,2.3221,2.3323,2.3285,2.3284,2.3272,2.3276,2.3337,2.3335,2.3293,2.3289,2.3296,2.334,2.3359,2.3365,2.3461,2.3374,2.3379,2.3382,2.3384,2.3637,2.364,0,0,0,0,0,0,2.3209,2.3219,2.3321,2.3325,2.324,2.3277,2.3282,2.3309,2.3334,2.3335,2.3299,2.3293,2.3352,2.3359,2.3367,2.3481,2.338,2.3384,2.3388,2.3633,2.3637,2.3641,0,0,0,0,0,0,2.3206,2.3219,2.3319,2.3271,2.3282,2.3283,2.3313,2.3312,2.333,2.3338,2.3338,2.3318,2.3349,2.3359,2.3433,2.3483,2.3387,2.3392,2.3629,2.3634,2.3639,2.3712,0,0,0,0,0,0,2.3203,2.3218,2.3254,2.3272,2.3285,2.3383,2.3317,2.3315,2.3339,2.3332,2.3356,2.3357,2.3348,2.3425,2.3438,2.3488,2.3396,2.3624,2.3631,2.3638,2.3705,2.3719,2.3731,0,0,0,0,0,2.3198,2.3273,2.3256,2.3269,2.3329,2.3386,2.3394,2.3381,2.3343,2.338,2.3385,2.3356,2.3476,2.3433,2.3447,2.35,2.3621,2.3629,2.3637,2.37,2.3717,2.3731,0,0,0,0,0,0,2.3263,2.3275,2.3256,2.3339,2.3362,2.3377,2.3422,2.3399,2.3434,2.3427,2.341,2.3416,2.3494,2.3505,2.3457,2.3595,2.3542,2.3554,2.3585,2.3601,2.3614,2.3609,2.34,0,0,0,0,0,2.3287,2.333,2.334,2.3412,2.3425,2.3422,2.3446,2.3434,2.3457,2.3467,2.3477,2.3503,2.3546,2.3574,2.3615,2.3707,2.3712,2.3751,2.3764,2.3774,2.3784,2.3833,2.3851,2.3667,2.3667,2.3667,0,0,2.3337,2.3349,2.3378,2.3426,2.3442,2.3489,2.343,2.3482,2.3517,2.3475,2.3544,2.3554,2.3581,2.3664,2.3702,2.3675,2.3836,2.3784,2.3793,2.3797,2.3843,2.3861,2.3876,2.3673,2.3672,2.3671,0,0,2.3451,2.3465,2.3527,2.3544,2.3569,2.3566,2.3582,2.36,2.3604,2.3673,2.3643,2.3685,2.376,2.378,2.38,2.3924,2.3899,2.3938,2.4006,2.4054,2.4069,2.4082,2.4125,2.4141,2.3948,2.3948,2.3948,0,2.351,2.3578,2.3562,2.3616,2.3638,2.3602,2.3665,2.3683,2.3721,2.3737,2.3707,2.38,2.3816,2.3904,2.3934,2.3952,2.3969,2.3935,2.4068,2.408,2.4092,2.4133,2.415,2.3953,2.3952,2.3952,2.3951,0,2.3649,2.3697,2.3744,2.378,2.3808,2.3866,2.386,2.3891,2.3877,2.3879,2.395,2.3968,2.4011,2.4032,2.4019,2.4118,2.4101,2.407,2.4016,2.4114,2.4153,2.4168,2.3959,2.3958,2.3956,2.3955,0,0,2.3804,2.383,2.3848,2.3864,2.3889,2.3926,2.3984,2.4025,2.4051,2.4079,2.4127,2.4192,2.4164,2.4187,2.4177,2.422,2.4316,2.4183,2.4184,2.4206,2.4425,2.4447,2.4466,2.43,2.4303,2.4305,2.4423,0,2.3918,2.4016,2.4004,2.4098,2.4142,2.4109,2.416,2.4182,2.4185,2.4224,2.4229,2.4275,2.4234,2.4248,2.4289,2.4295,2.4359,2.4287,2.4345,2.4347,2.4337,2.4486,2.4509,2.4619,2.4438,2.444,2.4442,0,2.4064,2.4095,2.4194,2.4212,2.423,2.4276,2.4312,2.435,2.4375,2.4375,2.4401,2.4383,2.4443,2.4389,2.4471,2.4422,2.4445,2.4452,2.4456,2.446,2.4399,2.4493,2.4654,2.467,2.4466,2.4464,2.4462,0,2.4166,2.4233,2.4301,2.4315,2.4339,2.4372,2.4383,2.4405,2.443,2.4463,2.448,2.452,2.4542,2.4574,2.4569,2.453,2.4652,2.4598,2.4654,2.4654,2.4679,2.4677,2.4845,2.4697,2.4697,2.4697,2.4696,0,2.4294,2.4355,2.4347,2.4388,2.4456,2.4443,2.4511,2.4519,2.4539,2.4582,2.4557,2.4598,2.4589,2.4631,2.4627,2.4695,2.4706,2.4708,2.4706,2.4709,2.4709,2.4723,2.4715,2.4701,2.47,2.4699,2.4699,0,2.4418,2.4415,2.4486,2.4503,2.4509,2.4558,2.4573,2.4613,2.4615,2.467,2.4682,2.4686,2.4733,2.4731,2.4786,2.4784,2.4867,2.4857,2.4858,2.4855,2.4911,2.4905,2.5092,2.5116,2.4954,2.4956,2.4957,0,2.4499,2.4545,2.4567,2.4593,2.4607,2.465,2.4676,2.4665,2.4693,2.4725,2.4761,2.4807,2.4842,2.492,2.4929,2.4971,2.4961,2.5023,2.4967,2.4968,2.496,2.4957,2.4961,2.5034,2.5036,2.5037,2.5039,0,2.4643,2.4639,2.4676,2.4713,2.4744,2.4773,2.48,2.4823,2.4816,2.4849,2.4897,2.4924,2.498,2.5025,2.5065,2.5079,2.5058,2.5057,2.5071,2.5074,2.5072,2.5073,2.4887,2.5052,2.5051,2.505,2.5049,2.5048,2.4747,2.4786,2.4808,2.485,2.4869,2.4894,2.4932,2.4939,2.4978,2.5021,2.5013,2.5067,2.5092,2.5143,2.5161,2.5203,2.5181,2.5203,2.5208,2.5213,2.5219,2.5067,2.5211,2.521,2.521,2.521,2.521,0,2.4888,2.4901,2.494,2.4977,2.5011,2.4987,2.5016,2.5046,2.5093,2.5117,2.5152,2.5208,2.5252,2.5264,2.5307,2.5338,2.533,2.535,2.5347,2.535,2.5237,2.5219,2.5356,2.5356,2.5356,2.5356,2.5356,2.5356,2.4966,2.5031,2.503,2.5105,2.5117,2.5168,2.5186,2.521,2.5229,2.5291,2.5327,2.5334,2.5354,2.5398,2.5438,2.5441,2.5457,2.5481,2.5479,2.5373,2.5358,2.5344,2.5327,2.5485,2.5485,2.5589,2.559,2.5591]},{"header":{"parameterUnit":"m.s-1","parameterCategory":1,"la1":30.2991,"la2":30.254,"lo1":-89.0895,"lo2":-89.0444,"dy":0.0017,"dx":0.0017,"nx":28,"ny":28,"refTime":"2025-08-23T03:00:00:Z","depth":0,"parameterNumber":3,"parameterNumberName":"V-component_of_WINDS"},"data":[0,0,0,0,0,0,0,0,0,0,0,0,0,0,0,0,0,0,0,0,0,0,0,0,0,0,0,0,0,0,0,0,0,0,0,0,0,0,0,0,0,0,0,0,0,0,0,0,0,0,0,0,0,0,0,0,0,0,2.4871,2.4875,0,2.5234,2.5238,2.5242,2.5315,2.5312,2.531,2.5307,2.5672,2.5684,2.5696,0,0,0,0,0,0,0,0,0,0,0,0,0,2.4231,2.4242,2.487,2.4875,2.488,2.5233,2.5238,2.5243,2.5316,2.5312,2.5309,2.5306,2.5668,2.5682,2.5697,0,0,0,0,0,0,0,0,0,0,0,0,0,2.4543,2.4246,2.487,2.4959,2.497,2.5232,2.5238,2.5244,2.5316,2.5312,2.5308,2.5304,2.5663,2.5681,2.5699,2.5896,0,0,2.5756,2.5764,0,0,0,0,0,0,0,0,2.4525,2.4566,2.4941,2.4953,2.4967,2.5225,2.5146,2.5462,2.5317,2.5185,2.5307,2.5302,2.5526,2.5556,2.5633,2.5913,2.5929,2.5757,2.5768,2.5776,2.5781,0,0,0,0,0,0,0,2.4503,2.4551,2.5014,2.4946,2.4962,2.4977,2.5017,2.5207,2.5374,2.5196,2.5202,2.5245,2.5532,2.5615,2.5642,2.5934,2.5757,2.5773,2.5784,2.5792,2.6389,2.6393,0,0,0,0,0,0,2.4467,2.4532,2.5002,2.5025,2.4731,2.4992,2.5037,2.5146,2.5372,2.5403,2.5248,2.5247,2.5585,2.562,2.5655,2.5898,2.5776,2.5793,2.5804,2.6384,2.639,2.6395,0,0,0,0,0,0,2.4453,2.4508,2.4988,2.4781,2.4843,2.5008,2.513,2.5155,2.5238,2.5411,2.5441,2.5302,2.5583,2.5629,2.5835,2.5912,2.5802,2.5818,2.6378,2.6386,2.6393,2.6387,0,0,0,0,0,0,2.4434,2.4503,2.4582,2.4782,2.4854,2.5165,2.5135,2.5166,2.5271,2.5273,2.547,2.5499,2.5584,2.5807,2.5853,2.5935,2.5833,2.6372,2.6382,2.639,2.6381,2.6393,2.6404,0,0,0,0,0,2.4411,2.4565,2.4586,2.4642,2.4956,2.517,2.521,2.5307,2.5276,2.5356,2.5466,2.5492,2.5895,2.5827,2.588,2.5969,2.6368,2.6379,2.639,2.6376,2.6391,2.6403,0,0,0,0,0,0,2.4369,2.4593,2.4618,2.4843,2.4986,2.5182,2.5285,2.532,2.5474,2.5469,2.558,2.5624,2.5823,2.5916,2.5837,2.6168,2.6129,2.6151,2.6101,2.6117,2.6127,2.6101,2.5848,0,0,0,0,0,2.4386,2.4543,2.4729,2.4909,2.498,2.5119,2.5216,2.5278,2.543,2.5491,2.5617,2.5762,2.5921,2.6023,2.618,2.6394,2.6436,2.648,2.6491,2.6499,2.6517,2.6634,2.6655,2.6431,2.6431,2.643,0,0,2.4423,2.4564,2.4657,2.4904,2.5023,2.518,2.5171,2.5338,2.5455,2.5516,2.5719,2.5815,2.5984,2.6194,2.6293,2.6278,2.6588,2.6513,2.6518,2.6533,2.6647,2.6668,2.6687,2.6438,2.6437,2.6435,0,0,2.457,2.4694,2.4856,2.4975,2.5155,2.5246,2.5284,2.5474,2.5541,2.5746,2.5794,2.5932,2.6205,2.6322,2.6417,2.6602,2.6631,2.665,2.6709,2.6821,2.6839,2.6855,2.692,2.6942,2.6667,2.6667,2.6667,0,2.4592,2.4834,2.4934,2.51,2.5205,2.5268,2.5431,2.554,2.5761,2.583,2.5811,2.6152,2.627,2.6506,2.6551,2.6627,2.6671,2.6629,2.6829,2.6846,2.6862,2.6925,2.6949,2.6668,2.6668,2.6667,2.6667,0,2.4851,2.5017,2.5126,2.5339,2.5457,2.5619,2.5741,2.5847,2.5896,2.5987,2.6192,2.6336,2.652,2.658,2.6631,2.6823,2.6808,2.6807,2.677,2.6883,2.6944,2.6969,2.6669,2.6669,2.6668,2.6668,0,0,2.4987,2.525,2.5289,2.5385,2.5585,2.5714,2.5877,2.6059,2.6147,2.6295,2.6433,2.6659,2.6658,2.6766,2.6828,2.6927,2.7061,2.6913,2.6919,2.6935,2.728,2.728,2.7307,2.7081,2.7086,2.709,2.7265,0,2.5158,2.5456,2.5548,2.5795,2.5947,2.6006,2.6147,2.6284,2.6372,2.6511,2.6607,2.6766,2.6754,2.6819,2.6918,2.7024,2.7132,2.7012,2.7207,2.7213,2.7165,2.7339,2.7341,2.75,2.729,2.7294,2.7297,0,2.5399,2.5553,2.5815,2.5994,2.6061,2.6187,2.6359,2.6493,2.6646,2.6703,2.6821,2.6874,2.7042,2.6993,2.7224,2.7141,2.7225,2.7288,2.7296,2.7319,2.7263,2.7366,2.7554,2.7578,2.7336,2.7332,2.733,0,2.5471,2.5742,2.5934,2.6014,2.6227,2.6314,2.6406,2.6556,2.6658,2.6806,2.6873,2.7038,2.7128,2.7253,2.7347,2.7304,2.7569,2.7529,2.7619,2.7616,2.7674,2.767,2.7878,2.7726,2.7726,2.7726,2.7725,0,2.5653,2.5811,2.5969,2.6087,2.6264,2.6365,2.6537,2.6631,2.6763,2.6897,2.6956,2.708,2.7197,2.7335,2.741,2.7588,2.7628,2.7677,2.7695,2.7673,2.7666,2.773,2.7722,2.7732,2.7731,2.7729,2.7728,0,2.5765,2.5877,2.6089,2.6273,2.6322,2.6444,2.6599,2.6714,2.6802,2.6971,2.7016,2.7154,2.732,2.7426,2.7636,2.7685,2.788,2.7895,2.7829,2.7838,2.7922,2.7912,2.818,2.8219,2.804,2.8042,2.8043,0,2.5875,2.5998,2.6193,2.6289,2.6382,2.6534,2.6639,2.6741,2.6846,2.7027,2.7119,2.7288,2.743,2.769,2.7807,2.7966,2.7985,2.8067,2.801,2.7982,2.7986,2.7978,2.7989,2.8077,2.8079,2.808,2.8081,0,2.6057,2.6106,2.6256,2.6424,2.6547,2.6683,2.682,2.6893,2.7018,2.7132,2.7303,2.7412,2.7626,2.7792,2.7961,2.8052,2.8086,2.8097,2.8127,2.8106,2.8063,2.8087,2.7856,2.8092,2.8091,2.809,2.8089,2.8089,2.6172,2.6283,2.6437,2.6601,2.6714,2.6839,2.6955,2.7057,2.7202,2.7386,2.7436,2.7613,2.7757,2.7989,2.8082,2.8219,2.8209,2.8251,2.8262,2.8271,2.8272,2.8039,2.825,2.825,2.825,2.825,2.8249,0,2.6357,2.6459,2.6608,2.6797,2.6924,2.6946,2.7097,2.7201,2.7357,2.749,2.7628,2.7821,2.7981,2.8109,2.8272,2.8357,2.8377,2.8397,2.8392,2.8412,2.8272,2.8231,2.8378,2.8378,2.8378,2.8378,2.8378,2.8378,2.6469,2.6658,2.6723,2.6966,2.7066,2.7242,2.7326,2.7439,2.7546,2.776,2.7894,2.7977,2.8107,2.8279,2.8425,2.8458,2.8515,2.8532,2.8568,2.8436,2.8422,2.8408,2.837,2.8544,2.8544,2.8696,2.8698,2.8699]}]]